Regional Weather Roundup
Issued by NWS Sioux Falls, SD

Home | Current Version | Previous Version | Text Only | Print | Product List | Glossary On
Versions: 1 2 3 4 5 6 7 8 9 10 11 12 13 14 15 16 17 18 19 20 21 22 23 24 25 26 27 28 29 30 31 32 33 34 35 36 37 38 39 40 41 42 43 44 45 46 47 48 49 50
000
ASUS43 KFSD 271610
RWRFSD

WEATHER ROUNDUP FOR SE SOUTH DAKOTA/SW MINNESOTA/NW IOWA
NATIONAL WEATHER SERVICE SIOUX FALLS SD
1100 AM CDT THU JUL 27 2017

NOTE: "FAIR" INDICATES FEW OR NO CLOUDS BELOW 12,000 FEET WITH NO
SIGNIFICANT WEATHER AND OR OBSTRUCTIONS TO VISIBILITY.


SDZ038>040-050-052>070-271700-
SOUTHEAST SOUTH DAKOTA

CITY           SKY/WX    TMP DP  RH WIND       PRES   REMARKS
BROOKINGS      MOSUNNY   74  62  66 N5        30.15S
CHAMBERLAIN    SUNNY     80  62  55 S7        30.14S
HURON          SUNNY     76  61  59 VRB3      30.14S
MADISON        FAIR      73  66  78 E7        30.15S
MITCHELL       SUNNY     78  64  61 E5        30.14S
SIOUX FALLS    MOSUNNY   78  65  63 CALM      30.13R
WINNER         FAIR      82  58  43 SE10      30.16S
YANKTON        SUNNY     78  62  57 N7        30.13S
$$

MNZ071-072-080-081-089-090-097-098-271700-
SOUTHWEST MINNESOTA

CITY           SKY/WX    TMP DP  RH WIND       PRES   REMARKS
FAIRMONT       SUNNY     78  65  63 VRB3      30.10S
JACKSON        SUNNY     75  63  64 CALM      30.12S
LUVERNE        SUNNY     75  61  60 E3        30.13S
MARSHALL       SUNNY     74  64  71 NW5       30.13S
MONTEVIDEO     SUNNY     82  64  54 CALM      30.13S
PIPESTONE      SUNNY     75  61  60 SE5       30.14S
REDWOOD FALLS  SUNNY     79  62  56 N8        30.11S
TRACY          SUNNY     74  65  73 N5        30.14S
WINDOM         SUNNY     77  63  61 N6        30.12S
WORTHINGTON    SUNNY     75  63  66 NE8       30.14S
$$

IAZ001>003-012>014-020>022-031-032-NEZ013-014-SDZ071-271700-
NORTHWEST IOWA

CITY           SKY/WX    TMP DP  RH WIND       PRES   REMARKS
CHEROKEE       SUNNY     78  65  64 NE8       30.10S
DENISON        SUNNY     77  64  65 NE8G16    30.10R
ESTHERVILLE    SUNNY     77  65  66 NE9       30.09F
ORANGE CITY    SUNNY     77  66  69 NE5       30.11S
SHELDON        SUNNY     77  64  65 NE7G14    30.10S
SIOUX CITY     MOSUNNY   80  64  58 E10       30.09S
SPENCER        SUNNY     80  62  54 N8        30.10S
STORM LAKE     SUNNY     75  64  69 VRB6      30.10S
$$

ABBREVIATIONS USED IN REMARKS
   TC - TEMPERATURE IN CELSIUS
  WCI - WIND CHILL INDEX
   HX - HEAT INDEX
  VSB - VISIBILITY




USA.gov is the U.S. government's official web portal to all federal, state and local government web resources and services.